Location: Unspecified
(0.0000°N, 0.0000°E)
Time: 22:56:54
(UTC+00:00)

A-11 Canister half - All Passes

Search period start: 19 November 2019 00:00
Search period end: 29 November 2019 00:00
Orbit: 1514 x 1686 km, 47.2° (Epoch: 18 November)

Date Brightness Start Highest point End Pass type
(mag) Time Alt. Az. Time Alt. Az. Time Alt. Az.
19 Nov - 00:54:25 10° N 01:01:26 22° NE 01:08:16 10° E visible
19 Nov - 02:56:44 10° NW 03:06:29 78° SW 03:15:54 10° SE visible
19 Nov - 05:07:17 10° WSW 05:11:35 14° SW 05:15:51 10° SSW visible
19 Nov - 13:42:50 10° SSW 13:51:54 47° SE 14:01:15 10° ENE daylight
19 Nov - 15:47:58 10° WSW 15:56:43 38° NW 16:05:45 10° NNE daylight
20 Nov - 00:31:51 10° N 00:38:27 20° NE 00:44:52 10° E visible
20 Nov - 02:33:46 10° NW 02:43:34 84° SW 02:53:02 10° SE visible
20 Nov - 04:43:30 10° W 04:48:36 15° SW 04:53:39 10° SSW visible
20 Nov - 13:20:05 10° SSW 13:28:59 43° SE 13:38:07 10° ENE daylight
20 Nov - 15:24:52 10° WSW 15:33:46 41° NW 15:42:58 10° NNE daylight
21 Nov - 00:09:20 10° N 00:15:27 18° NE 00:21:24 10° E night (unlit)
21 Nov - 02:10:49 10° NW 02:20:40 89° NE 02:30:09 10° SE visible
21 Nov - 04:19:52 10° W 04:25:37 17° SW 04:31:19 10° S visible
21 Nov - 12:57:21 10° SSW 13:06:03 39° SE 13:14:58 10° ENE daylight
21 Nov - 15:01:47 10° WSW 15:10:49 45° NW 15:20:11 10° NNE daylight
21 Nov - 23:46:54 10° N 23:52:26 16° NE 23:57:51 10° E night (unlit)
22 Nov - 01:47:52 10° NW 01:57:44 83° NE 02:07:16 10° SE visible
22 Nov - 03:56:19 10° W 04:02:38 19° SW 04:08:54 10° S visible
22 Nov - 12:34:40 10° SSW 12:43:07 36° SE 12:51:48 10° ENE daylight
22 Nov - 14:38:43 10° WSW 14:47:52 49° NW 14:57:22 10° NNE daylight
22 Nov - 23:24:34 10° NNE 23:29:25 14° NE 23:34:10 10° ENE night (unlit)
23 Nov - 01:24:56 10° NW 01:34:49 77° NE 01:44:20 10° SE visible
23 Nov - 03:32:51 10° W 03:39:41 22° SW 03:46:25 10° S visible
23 Nov - 12:11:59 10° S 12:20:11 33° SE 12:28:35 10° ENE daylight
23 Nov - 14:15:42 10° SW 14:24:56 53° NW 14:34:32 10° NNE daylight
23 Nov - 23:02:22 10° NNE 23:06:23 13° NE 23:10:20 10° ENE night (unlit)
24 Nov - 01:02:02 10° NNW 01:11:54 71° NE 01:21:24 10° SE visible
24 Nov - 03:09:27 10° W 03:16:43 24° SW 03:23:53 10° S visible
24 Nov - 11:49:20 10° S 11:57:15 30° SE 12:05:19 10° ENE daylight
24 Nov - 13:52:41 10° SW 14:02:00 58° NW 14:11:40 10° NNE daylight
24 Nov - 22:40:29 10° NNE 22:43:20 11° NE 22:46:10 10° ENE night (unlit)
25 Nov - 00:39:08 10° NNW 00:48:59 66° NE 00:58:27 10° SE visible
25 Nov - 02:46:06 10° WNW 02:53:46 26° SW 03:01:18 10° S visible
25 Nov - 11:26:43 10° S 11:34:19 27° SE 11:42:02 10° ENE daylight
25 Nov - 13:29:42 10° SW 13:39:05 63° NW 13:48:48 10° NNE daylight
25 Nov - 15:42:50 10° NW 15:44:46 11° NW 15:46:42 10° NNW daylight
26 Nov - 00:16:16 10° NNW 00:26:03 60° NE 00:35:28 10° SE visible
26 Nov - 02:22:47 10° WNW 02:30:50 29° SW 02:38:42 10° S visible
26 Nov - 11:04:07 10° S 11:11:22 25° SE 11:18:43 10° E daylight
26 Nov - 13:06:44 10° SW 13:16:10 69° NW 13:25:56 10° NNE daylight
26 Nov - 15:18:20 10° WNW 15:21:43 12° NW 15:25:08 10° NNW daylight
26 Nov - 23:53:25 10° NNW 00:03:06 56° NE 00:12:28 10° SE visible
27 Nov - 01:59:32 10° WNW 02:07:53 32° SW 02:16:03 10° S visible
27 Nov - 10:41:34 10° S 10:48:25 22° SE 10:55:21 10° E daylight
27 Nov - 12:43:49 10° SW 12:53:14 74° NW 13:03:02 10° NNE daylight
27 Nov - 14:54:21 10° WNW 14:58:41 14° NW 15:03:05 10° NNW daylight
27 Nov - 23:30:34 10° NNW 23:40:10 51° NE 23:49:27 10° ESE night (unlit)
28 Nov - 01:36:18 10° WNW 01:44:57 35° SW 01:53:23 10° SSE visible
28 Nov - 10:19:05 10° S 10:25:28 20° SE 10:31:55 10° E daylight
28 Nov - 12:20:53 10° SW 12:30:19 81° NW 12:40:07 10° NE daylight
28 Nov - 14:30:36 10° WNW 14:35:39 15° NW 14:40:48 10° NNW daylight
28 Nov - 23:07:44 10° NNW 23:17:14 47° NE 23:26:24 10° ESE night (unlit)
